Weather History for KPAN - December, 2013

Change the Weather History Date:

Thursday, December 5, 2013

  Actual Average Record
Temperature  
Mean Temperature 32 °F -  
Max Temperature 37 °F 56 °F 66 °F (2012)
Min Temperature 26 °F 27 °F 26 °F (2011)
Degree Days  
Heating Degree Days 34    
Moisture  
Dew Point 21 °F    
Average Humidity 65    
Maximum Humidity 93    
Minimum Humidity 38    
Precipitation  
Precipitation 0.00 in - - ()
Sea Level Pressure  
Sea Level Pressure 29.92 in    
Wind  
Wind Speed 2 mph (SW)    
Max Wind Speed 10 mph    
Max Gust Speed 15 mph    
Visibility 10 miles    
Events      
Averages and records for this station are not official NWS values.
T = Trace of Precipitation, MM = Missing Value Source: NWS Daily Summary

Daily Weather History Graph

Daily Weather History Graph

Search for Another Location

Airport or City:

Trip Planner

Search our weather history database for the weather conditions in past years. The results will help you decide how hot, cold, wet, or windy it might be!

Date:

Astronomy

Dec. 05, 2013 Rise Set
Actual Time 7:16 AM MST 5:15 PM MST
Civil Twilight 6:49 AM MST 5:42 PM MST
Nautical Twilight 6:18 AM MST 6:14 PM MST
Astronomical Twilight 5:47 AM MST 6:44 PM MST
Moon 9:43 AM MST (12/5) 8:35 PM MST (12/5)
Length of Visible Light 10h 53m
Length of Day
9h 58m
Waxing Crescent, 11% of the Moon is Illuminated
Dec 5
Waxing Crescent
Dec 9
First Quarter
Dec 17
Full
Dec 25
Last Quarter
Jan 1
New

Hourly Weather History & Observations

Time (MST) Temp. Windchill Dew Point Humidity Pressure Visibility Wind Dir Wind Speed Gust Speed Precip Events Conditions
12:15 AM 33.8 °F - 30.2 °F 87% 29.90 in 10.0 mi Calm Calm - N/A   Clear
12:35 AM 33.8 °F - 28.4 °F 81% 29.89 in 10.0 mi Calm Calm - N/A   Clear
12:55 AM 33.8 °F - 28.4 °F 81% 29.89 in 10.0 mi Calm Calm - N/A   Clear
1:15 AM 32.0 °F - 28.4 °F 87% 29.89 in 10.0 mi Calm Calm - N/A   Clear
1:35 AM 32.0 °F 28.7 °F 28.4 °F 87% 29.88 in 10.0 mi SSE 3.5 mph - N/A   Clear
1:55 AM 32.0 °F 28.7 °F 28.4 °F 87% 29.89 in 10.0 mi South 3.5 mph - N/A   Clear
2:15 AM 32.0 °F - 28.4 °F 87% 29.89 in 10.0 mi Calm Calm - N/A   Clear
2:35 AM 32.0 °F - 28.4 °F 87% 29.88 in 10.0 mi Calm Calm - N/A   Clear
2:55 AM 32.0 °F - 26.6 °F 80% 29.88 in 10.0 mi Calm Calm - N/A   Clear
3:15 AM 30.2 °F 26.7 °F 26.6 °F 86% 29.88 in 10.0 mi SE 3.5 mph - N/A   Clear
3:35 AM 30.2 °F - 26.6 °F 86% 29.88 in 10.0 mi Calm Calm - N/A   Clear
3:55 AM 30.2 °F - 26.6 °F 86% 29.88 in 10.0 mi Calm Calm - N/A   Clear
4:15 AM 30.2 °F - 24.8 °F 80% 29.87 in 10.0 mi Calm Calm - N/A   Clear
4:35 AM 30.2 °F - 24.8 °F 80% 29.87 in 10.0 mi Calm Calm - N/A   Clear
4:55 AM 28.4 °F - 26.6 °F 93% 29.87 in 10.0 mi Calm Calm - N/A   Clear
5:15 AM 28.4 °F - 26.6 °F 93% 29.87 in 10.0 mi Calm Calm - N/A   Partly Cloudy
5:35 AM 28.4 °F - 26.6 °F 93% 29.87 in 10.0 mi Calm Calm - N/A   Clear
5:55 AM 28.4 °F - 26.6 °F 93% 29.87 in 10.0 mi Calm Calm - N/A   Clear
6:15 AM 28.4 °F - 26.6 °F 93% 29.88 in 10.0 mi Calm Calm - N/A   Clear
6:35 AM 28.4 °F - 24.8 °F 86% 29.88 in 10.0 mi Calm Calm - N/A   Clear
6:55 AM 28.4 °F - 24.8 °F 86% 29.88 in 10.0 mi Calm Calm - N/A   Clear
7:15 AM 28.4 °F 24.6 °F 24.8 °F 86% 29.89 in 10.0 mi SSW 3.5 mph - N/A   Clear
7:35 AM 26.6 °F - 24.8 °F 93% 29.89 in 10.0 mi Calm Calm - N/A   Clear
7:55 AM 28.4 °F - 24.8 °F 86% 29.89 in 10.0 mi Calm Calm - N/A   Clear
8:15 AM 30.2 °F - 24.8 °F 80% 29.90 in 10.0 mi Calm Calm - N/A   Clear
8:35 AM 28.4 °F - 26.6 °F 93% 29.91 in 10.0 mi Calm Calm - N/A   Clear
8:55 AM 32.0 °F 27.5 °F 26.6 °F 80% 29.91 in 10.0 mi South 4.6 mph - N/A   Clear
9:15 AM 33.8 °F - 24.8 °F 70% 29.92 in 10.0 mi Calm Calm - N/A   Clear
9:35 AM 33.8 °F - 23.0 °F 65% 29.93 in 10.0 mi Calm Calm - N/A   Clear
9:55 AM 33.8 °F 29.6 °F 24.8 °F 70% 29.94 in 10.0 mi Variable 4.6 mph - N/A   Clear
10:15 AM 35.6 °F 30.7 °F 19.4 °F 52% 29.94 in 10.0 mi Variable 5.8 mph - N/A   Scattered Clouds
10:35 AM 35.6 °F 32.8 °F 17.6 °F 48% 29.94 in 10.0 mi Variable 3.5 mph - N/A   Partly Cloudy
10:55 AM 33.8 °F 29.6 °F 19.4 °F 56% 29.94 in 10.0 mi Variable 4.6 mph - N/A   Scattered Clouds
11:15 AM 33.8 °F 28.6 °F 19.4 °F 56% 29.94 in 10.0 mi West 5.8 mph - N/A   Mostly Cloudy
11:35 AM 33.8 °F 29.6 °F 19.4 °F 56% 29.93 in 10.0 mi West 4.6 mph - N/A   Mostly Cloudy
11:55 AM 37.4 °F 33.8 °F 21.2 °F 52% 29.93 in 10.0 mi Variable 4.6 mph - N/A   Mostly Cloudy
12:15 PM 37.4 °F 32.8 °F 19.4 °F 48% 29.92 in 10.0 mi SW 5.8 mph 15.0 mph N/A   Overcast
12:35 PM 37.4 °F 30.8 °F 17.6 °F 45% 29.91 in 10.0 mi WSW 9.2 mph - N/A   Mostly Cloudy
12:55 PM 37.4 °F 30.8 °F 17.6 °F 45% 29.91 in 10.0 mi West 9.2 mph - N/A   Scattered Clouds
1:15 PM 37.4 °F 30.3 °F 15.8 °F 41% 29.91 in 10.0 mi SW 10.4 mph - N/A   Partly Cloudy
1:35 PM 37.4 °F 32.8 °F 15.8 °F 41% 29.90 in 10.0 mi Variable 5.8 mph 13.8 mph N/A   Clear
1:55 PM 35.6 °F 29.9 °F 15.8 °F 44% 29.90 in 10.0 mi WSW 6.9 mph 13.8 mph N/A   Clear
2:15 PM 35.6 °F 28.0 °F 15.8 °F 44% 29.89 in 10.0 mi WSW 10.4 mph - N/A   Partly Cloudy
2:35 PM 37.4 °F 30.8 °F 15.8 °F 41% 29.89 in 10.0 mi SW 9.2 mph - N/A   Scattered Clouds
2:55 PM 37.4 °F 30.8 °F 17.6 °F 45% 29.89 in 10.0 mi WSW 9.2 mph - N/A   Partly Cloudy
3:15 PM 37.4 °F 32.8 °F 15.8 °F 41% 29.90 in 10.0 mi Variable 5.8 mph - N/A   Scattered Clouds
3:35 PM 37.4 °F 31.4 °F 15.8 °F 41% 29.90 in 10.0 mi WSW 8.1 mph 13.8 mph N/A   Mostly Cloudy
3:55 PM 37.4 °F 32.8 °F 14.0 °F 38% 29.91 in 10.0 mi Variable 5.8 mph - N/A   Mostly Cloudy
4:15 PM 37.4 °F 30.8 °F 15.8 °F 41% 29.91 in 10.0 mi WSW 9.2 mph 15.0 mph N/A   Scattered Clouds
4:35 PM 35.6 °F 28.6 °F 15.8 °F 44% 29.91 in 10.0 mi West 9.2 mph - N/A   Clear
4:55 PM 35.6 °F 29.9 °F 14.0 °F 41% 29.91 in 10.0 mi WSW 6.9 mph - N/A   Clear
5:15 PM 33.8 °F 28.6 °F 15.8 °F 48% 29.91 in 10.0 mi WSW 5.8 mph - N/A   Clear
5:35 PM 32.0 °F - 17.6 °F 55% 29.91 in 10.0 mi Calm Calm - N/A   Clear
5:55 PM 30.2 °F 26.7 °F 17.6 °F 60% 29.92 in 10.0 mi SSW 3.5 mph - N/A   Clear
6:15 PM 30.2 °F - 17.6 °F 60% 29.93 in 10.0 mi Calm Calm - N/A   Clear
6:35 PM 30.2 °F 25.4 °F 17.6 °F 60% 29.94 in 10.0 mi Variable 4.6 mph - N/A   Clear
6:55 PM 30.2 °F 26.7 °F 15.8 °F 55% 29.94 in 10.0 mi SW 3.5 mph - N/A   Clear
7:15 PM 30.2 °F 24.3 °F 15.8 °F 55% 29.95 in 10.0 mi WSW 5.8 mph - N/A   Clear
7:35 PM 30.2 °F 24.3 °F 15.8 °F 55% 29.95 in 10.0 mi Variable 5.8 mph - N/A   Clear
7:55 PM 30.2 °F 24.3 °F 15.8 °F 55% 29.96 in 10.0 mi WSW 5.8 mph - N/A   Clear
8:15 PM 30.2 °F 25.4 °F 14.0 °F 51% 29.97 in 10.0 mi WSW 4.6 mph - N/A   Clear
8:35 PM 30.2 °F 26.7 °F 15.8 °F 55% 29.97 in 10.0 mi WSW 3.5 mph - N/A   Clear
8:55 PM 28.4 °F 23.3 °F 15.8 °F 59% 29.98 in 10.0 mi WSW 4.6 mph - N/A   Clear
9:15 PM 28.4 °F - 14.0 °F 55% 29.98 in 10.0 mi Calm Calm - N/A   Clear
9:35 PM 28.4 °F - 15.8 °F 59% 29.98 in 10.0 mi Calm Calm - N/A   Clear
9:55 PM 26.6 °F - 15.8 °F 64% 29.99 in 10.0 mi Calm Calm - N/A   Clear
10:15 PM 28.4 °F 23.3 °F 14.0 °F 55% 30.00 in 10.0 mi West 4.6 mph - N/A   Clear
10:35 PM 28.4 °F 23.3 °F 14.0 °F 55% 30.00 in 10.0 mi West 4.6 mph - N/A   Clear
10:55 PM 26.6 °F - 15.8 °F 64% 30.01 in 10.0 mi Calm Calm - N/A   Clear
11:15 PM 26.6 °F - 14.0 °F 59% 30.01 in 10.0 mi Calm Calm - N/A   Clear